Hourly Data Report for October 28, 2015

All times are specified in Local Standard Time (LST). Add 1 hour to adjust for Daylight Saving Time where and when it is observed.

HALL BEACH A
NUNAVUT

68°46'33.000" N
81°14'33.000" W
9.10 m
2402354
71293
YUX

Download Data

Hourly Data (October 2015)
Hourly Data Report for October 28, 2015
Temp Definition
°C
Dew Point Temp Definition
°C
Rel Hum Definition
%
Wind Dir Definition
10's deg

Wind Spd Definition
km/h
Visibility Definition
km
Stn Press Definition
kPa
Hmdx Definition


Wind Chill Definition


Weather Definition


TIME
00:00 Legend Double Dagger -9.5 -10.4 93 33 24 16.1 100.52   -18 LegendNANA
01:00 Legend Double Dagger -8.9 -9.9 92 33 28 16.1 100.58   -18 Snow
02:00 Legend Double Dagger -9.0 -10.1 92 33 26 16.1 100.63   -18 Snow
03:00 Legend Double Dagger -9.8 -11.0 91 34 32 16.1 100.66   -20 LegendNANA
04:00 Legend Double Dagger -10.4 -11.7 90 32 24 16.1 100.72   -19 LegendNANA
05:00 Legend Double Dagger -12.2 -13.5 90 31 28 16.1 100.73   -22 LegendNANA
06:00 Legend Double Dagger -12.6 -13.8 91 32 28 16.1 100.75   -23 Snow
07:00 Legend Double Dagger -12.6 -13.9 90 32 30 16.1 100.76   -23 Snow
08:00 Legend Double Dagger -13.5 -14.7 91 31 32 16.1 100.79   -24 LegendNANA
09:00 Legend Double Dagger -12.1 -13.3 91 31 28 6.4 100.80   -22 Snow
10:00 Legend Double Dagger -7.5 -11.2 75 6 22 16.1 100.80   -15 Snow
11:00 Legend Double Dagger -6.9 -11.2 72 6 18 16.1 100.82   -14 LegendNANA
12:00 Legend Double Dagger -6.7 -10.4 75 6 24 16.1 100.85   -14 Snow
13:00 Legend Double Dagger -6.9 -10.9 74 6 26 16.1 100.89   -15 LegendNANA
14:00 Legend Double Dagger -7.1 -12.3 67 5 22 16.1 100.94   -15 Snow
15:00 Legend Double Dagger -7.3 -12.0 70 7 18 16.1 100.97   -14 Snow
16:00 Legend Double Dagger -7.5 -12.2 70 9 26 16.1 100.98   -16 Snow
17:00 Legend Double Dagger -7.8 -11.8 73 7 17 16.1 100.99   -14 Snow
18:00 Legend Double Dagger -7.9 -11.8 74 7 18 16.1 101.01   -15 Snow
19:00 Legend Double Dagger -8.1 -12.6 70 8 22 16.1 101.02   -16 LegendNANA
20:00 Legend Double Dagger -8.1 -12.5 71 7 24 16.1 101.00   -16 LegendNANA
21:00 Legend Double Dagger -8.4 -12.9 71 7 21 16.1 100.99   -16 LegendNANA
22:00 Legend Double Dagger -8.5 -13.0 70 6 21 16.1 100.96   -16 LegendNANA
23:00 Legend Double Dagger -8.5 -13.3 68 7 22 16.1 100.95   -16 LegendNANA

Notes on Data Quality.

Legend

  • E = Estimated
  • M = Missing
  • NA = Not Available
  • ‡ = Partner data that is not subject to review by the National Climate Archives
Date modified: